| time (UTC) | temp C | wind direction | speed KPH | gust KPH | rain 1hr cm | rain 24hr cm | rain mn cm | humidity % | barometer mb |
| 20260504174522 | 25 | 281 | 1.6 | 17.7 | 0.00 | 0.00 | 0.00 | 47 | 1012.5 |
| 20260504173018 | 25 | 176 | 0.0 | 3.2 | 0.00 | 0.00 | 0.00 | 49 | 1012.9 |
| 20260504171513 | 24 | 296 | 1.6 | 16.1 | 0.00 | 0.00 | 0.00 | 49 | 1013.0 |
| 20260504081536 | 11 | 205 | 0.0 | 0.0 | 0.00 | 0.00 | 0.00 | 1 | 1013.9 |
| 20260504044536 | 12 | 186 | 0.0 | 0.0 | 0.00 | 0.00 | 0.00 | 1 | 1015.2 |
| 20260504043031 | 12 | 186 | 0.0 | 0.0 | 0.00 | 0.00 | 0.00 | 1 | 1015.3 |
| 20260504041538 | 12 | 186 | 0.0 | 0.0 | 0.00 | 0.00 | 0.00 | 1 | 1015.4 |
| 20260504040023 | 12 | 186 | 0.0 | 0.0 | 0.00 | 0.00 | 0.00 | 1 | 1015.5 |
| 20260504034518 | 12 | 294 | 0.0 | 0.0 | 0.00 | 0.00 | 0.00 | 1 | 1015.7 |
| 20260504033013 | 12 | 294 | 0.0 | 0.0 | 0.00 | 0.00 | 0.00 | 1 | 1015.7 |
| 20260504031508 | 12 | 294 | 0.0 | 0.0 | 0.00 | 0.00 | 0.00 | 1 | 1015.7 |
| 20260504030004 | 12 | 294 | 0.0 | 0.0 | 0.00 | 0.00 | 0.00 | 1 | 1015.8 |
| 20260504024600 | 12 | 294 | 0.0 | 0.0 | 0.00 | 0.00 | 0.00 | 1 | 1015.7 |
| 20260504023055 | 12 | 294 | 0.0 | 0.0 | 0.00 | 0.00 | 0.00 | 1 | 1015.7 |
| 20260504021553 | 12 | 294 | 0.0 | 0.0 | 0.00 | 0.00 | 0.00 | 1 | 1015.6 |
| 20260504020049 | 13 | 294 | 0.0 | 0.0 | 0.00 | 0.00 | 0.00 | 1 | 1015.5 |
| 20260504014543 | 13 | 294 | 0.0 | 0.0 | 0.00 | 0.00 | 0.00 | 20 | 1015.3 |
| 20260504013054 | 15 | 294 | 0.0 | 0.0 | 0.00 | 0.00 | 0.00 | 23 | 1015.1 |
| 20260504011534 | 16 | 294 | 0.0 | 0.0 | 0.00 | 0.00 | 0.00 | 30 | 1015.1 |
| 20260504010032 | 17 | 294 | 0.0 | 0.0 | 0.00 | 0.00 | 0.00 | 42 | 1014.9 |
| 20260504004525 | 18 | 294 | 0.0 | 0.0 | 0.00 | 0.00 | 0.00 | 57 | 1014.8 |
| 20260504003020 | 22 | 294 | 0.0 | 0.0 | 0.00 | 0.00 | 0.00 | 55 | 1014.6 |
| 20260504001523 | 24 | 294 | 0.0 | 0.0 | 0.00 | 0.00 | 0.00 | 43 | 1014.6 |
| 20260504000012 | 24 | 294 | 0.0 | 0.0 | 0.00 | 0.00 | 0.00 | 48 | 1014.8 |
| 20260503234507 | 23 | 294 | 0.0 | 0.0 | 0.00 | 0.00 | 0.00 | 48 | 1014.9 |
| 20260503233007 | 23 | 291 | 0.0 | 0.0 | 0.00 | 0.00 | 0.00 | 40 | 1014.7 |
| 20260503231601 | 23 | 296 | 0.0 | 0.0 | 0.00 | 0.00 | 0.00 | 39 | 1014.9 |
| 20260503230058 | 23 | 265 | 0.0 | 0.0 | 0.00 | 0.00 | 0.00 | 35 | 1014.9 |
| 20260503224559 | 23 | 218 | 0.0 | 6.4 | 0.00 | 0.00 | 0.00 | 37 | 1015.2 |
| 20260503223046 | 23 | 272 | 0.0 | 0.0 | 0.00 | 0.00 | 0.00 | 36 | 1015.1 |
| 20260503221556 | 22 | 309 | 0.0 | 6.4 | 0.00 | 0.00 | 0.00 | 39 | 1015.2 |
| 20260503220037 | 22 | 295 | 0.0 | 17.7 | 0.00 | 0.00 | 0.00 | 38 | 1015.3 |
| 20260503214539 | 23 | 297 | 0.0 | 0.0 | 0.00 | 0.00 | 0.00 | 37 | 1015.4 |
| 20260503213028 | 23 | 302 | 0.0 | 0.0 | 0.00 | 0.00 | 0.00 | 36 | 1015.6 |
| 20260503211523 | 23 | 209 | 0.0 | 0.0 | 0.00 | 0.00 | 0.00 | 40 | 1015.8 |
| 20260503210019 | 22 | 167 | 0.0 | 8.0 | 0.00 | 0.00 | 0.00 | 39 | 1016.2 |
| 20260503204515 | 22 | 267 | 0.0 | 1.6 | 0.00 | 0.00 | 0.00 | 41 | 1016.4 |
| 20260503203012 | 22 | 236 | 0.0 | 6.4 | 0.00 | 0.00 | 0.00 | 41 | 1016.8 |
| 20260503201505 | 22 | 275 | 0.0 | 1.6 | 0.00 | 0.00 | 0.00 | 40 | 1016.9 |
| 20260503200001 | 21 | 293 | 0.0 | 1.6 | 0.00 | 0.00 | 0.00 | 43 | 1017.4 |
| 20260503194607 | 21 | 281 | 0.0 | 1.6 | 0.00 | 0.00 | 0.00 | 40 | 1017.8 |
| 20260503193103 | 21 | 289 | 0.0 | 16.1 | 0.00 | 0.00 | 0.00 | 42 | 1018.0 |
| 20260503191607 | 21 | 255 | 0.0 | 20.9 | 0.00 | 0.00 | 0.00 | 41 | 1018.3 |
| 20260503190043 | 21 | 325 | 0.0 | 19.3 | 0.00 | 0.00 | 0.00 | 44 | 1018.6 |
| 20260503184539 | 21 | 260 | 3.2 | 22.5 | 0.00 | 0.00 | 0.00 | 43 | 1019.0 |
| 20260503183036 | 21 | 294 | 0.0 | 8.0 | 0.00 | 0.00 | 0.00 | 42 | 1019.1 |
| 20260503181544 | 21 | 304 | 0.0 | 4.8 | 0.00 | 0.00 | 0.00 | 42 | 1019.2 |
| 20260503180029 | 20 | 248 | 1.6 | 12.9 | 0.00 | 0.00 | 0.00 | 43 | 1019.6 |